Regional Weather Roundup
Issued by NWS

Home | Current Version | Previous Version | Text Only | Print | Product List | Glossary On
Versions: 1 2 3 4 5 6 7 8 9 10 11 12 13 14 15 16 17 18 19 20 21 22 23 24 25 26 27 28 29 30 31 32 33 34 35 36 37 38 39 40 41 42 43 44 45 46 47 48 49 50
443
ASUS43 KLOT 230709
RWRIL

ILLINOIS REGIONAL WEATHER ROUNDUP
NATIONAL WEATHER SERVICE CHICAGO/ROMEOVILLE IL
200 AM CDT TUE MAY 23 2017

NOTE: "FAIR" INDICATES FEW OR NO CLOUDS BELOW 12,000 FEET WITH NO
SIGNIFICANT WEATHER AND/OR OBSTRUCTIONS TO VISIBILITY.

* THESE STATIONS ARE NOT UNDER NWS QUALITY CONTROL. THEY ALSO MAY NOT
  REPORT WEATHER SUCH AS PRECIPITATION OR FOG.

ILZ001-002-007-009-015-016-024-230800-
NORTHWEST ILLINOIS

CITY           SKY/WX    TMP DP  RH WIND       PRES   REMARKS
MOLINE         CLOUDY    56  51  84 CALM      29.83F
STERLING*      PTCLDY    56  54  93 CALM      29.84F
SAVANNA*       CLOUDY    55  53  95 S5        29.82F
$$

ILZ003-004-008-010-011-017-018-230800-
NORTH CENTRAL ILLINOIS

CITY           SKY/WX    TMP DP  RH WIND       PRES   REMARKS
ROCKFORD       CLOUDY    58  54  86 SW5       29.85F
FREEPORT*      CLOUDY    55  53  95 S10       29.83F
ROCHELLE*      CLOUDY    55  53  92 S8        29.85F
DE KALB*       CLOUDY    55  53  92 S7        29.86F
PERU*          MOCLDY    56  53  89 S9        29.86F
$$

ILZ005-006-012>014-019>023-230800-
NORTHEAST ILLINOIS

CITY           SKY/WX    TMP DP  RH WIND       PRES   REMARKS
CHICAGO-OHARE  CLOUDY    60  53  77 SW10      29.85F
CHICAGO-MIDWAY CLOUDY    61  54  77 SW10      29.86F
AURORA         CLOUDY    59  55  87 S9        29.86F
LANSING*       CLOUDY    58  55  89 S9        29.88F
WAUKEGAN       CLOUDY    59  54  83 SW10      29.83F
DUPAGE AIRPORT CLOUDY    59  55  87 SW10      29.85F
KANKAKEE*      DRIZZLE   58  55  87 CALM      29.91F
WHEELING       CLOUDY    60  55  83 SW9       29.86F
MORRIS*        CLOUDY    59  54  84 SW6       29.86F
ROMEOVILLE*    CLOUDY    58  56  93 SW6       29.87F
NORTHERLY ISL    N/A     61  51  70 S12         N/A
$$

LMZ740>746-230800-
SOUTHERN LAKE MICHIGAN

STATION/POSITION SKY/WX   TEMP    WIND        PRES    VSBY  WAVE
                          AIR SEA DIR/SP/G                  HT/PER
                          (F)     (DEG/KT/KT) (MB)    (MI)  (FT/S)
SOUTHERN BUOY              50 45  220/ 10/ 12 1011.4          1/ 3
WILMETTE HARBOR            58 54                N/A           1/ 2
HARRISON CRIB              62     220/ 21/ 23   N/A
BURNHAM HARBOR             61     210/  8/ 12   N/A
CALUMET HARBOR                    200/ 10/ 14 1011.1F
BURNS HARBOR               61     220/ 12/ 18 1012.2F
MICHIGAN CITY              61     190/ 16/ 20   N/A
MICHIGAN CITY 6N           59 53  210/ 14/ 17   N/A           2/ 3
ST. JOSEPH                 57 55  200/  8/ 10 1011.9          2/ 4
$$

ILZ025>027-034>036-040-047-049-050-058-095>099-230800-
WEST-CENTRAL ILLINOIS

CITY           SKY/WX    TMP DP  RH WIND       PRES   REMARKS
QUINCY         RAIN      57  55  93 VRB5      29.89F FOG
GALESBURG*     CLOUDY    56  53  88 S10       29.85F
MACOMB*        LGT RAIN  56  54  92 S9        29.88F
JACKSONVILLE*  LGT RAIN  56  55  95 CALM      29.89F
PITTSFIELD*    CLOUDY    56  56  98 E5        29.89F
$$

ILZ028>032-037-038-041>044-048-051>054-059>061-230800-
CENTRAL ILLINOIS

CITY           SKY/WX    TMP DP  RH WIND       PRES   REMARKS
PONTIAC        CLOUDY    59  58  94 S14       29.89F
BLOOMINGTON    LGT RAIN  56  54  93 S10       29.91F
DECATUR        CLOUDY    58  53  84 N7        29.91F
PEORIA         LGT RAIN  57  55  93 S10       29.87F
LACON*         CLOUDY    57  55  90 S9        29.85F
LINCOLN*       RAIN      58  58  99 CALM      29.91F
SPRINGFIELD    CLOUDY    58  57  97 NE5       29.90F
TAYLORVILLE    CLOUDY    58  54  86 N6        29.91F
$$

ILZ033-039-045-046-055>057-062-063-230800-
EAST-CENTRAL ILLINOIS

CITY           SKY/WX    TMP DP  RH WIND       PRES   REMARKS
CHAMPAIGN      CLOUDY    59  55  87 NW9       29.92F
RANTOUL*       CLOUDY    61  58  90 W8        29.92F
MATTOON        CLOUDY    58  56  93 SE6       29.90F
PARIS*         CLOUDY    60  51  71 SW5       29.92F
$$

ILZ079-100>102-230800-
SOUTHWEST ILLINOIS

CITY           SKY/WX    TMP DP  RH WIND       PRES   REMARKS
ALTON          CLOUDY    60  56  88 NE5       29.89F
BELLEVILLE     CLOUDY    60  54  80 CALM      29.88F
CAHOKIA*       PTCLDY    62  52  69 CALM      29.87F
SPARTA*        PTCLDY    61  53  76 SE3       29.89F
$$

ILZ064>066-069>071-074>076-080>082-084>086-088>090-092>094-230800-
SOUTH-CENTRAL ILLINOIS

CITY           SKY/WX    TMP DP  RH WIND       PRES   REMARKS
CARBONDALE     CLOUDY    59  57  93 CALM      29.89F
CAIRO*         MOCLDY    58  55  89 NE3       29.89F
EFFINGHAM*     CLOUDY    58  57  96 CALM      29.92F
MARION         CLOUDY    59  59 100 CALM      29.91F
MT. VERNON       N/A     59  53  80 CALM      29.90F
CENTRALIA*     MOCLDY    62  56  80 SE5       29.88F
SALEM*         MOCLDY    63  52  66 SE5       29.89F
METROPOLIS*    MOCLDY    56  54  93 CALM      29.90F
$$

ILZ067-068-072-073-078-083-087-091-230800-
SOUTHEAST ILLINOIS

CITY           SKY/WX    TMP DP  RH WIND       PRES   REMARKS
LAWRENCEVILLE  CLOUDY    61  54  77 E3        29.92F
FLORA*         CLOUDY    62  56  81 SE3       29.91F
FAIRFIELD*     CLOUDY    63  53  69 CALM      29.89F
HARRISBURG*    PTCLDY    58  55  90 CALM      29.91F
ROBINSON*      CLOUDY    60  53  76 CALM      29.92F
CARMI*         CLOUDY    59  54  83 CALM      29.90F
$$

ABBREVIATIONS USED IN REMARKS
   TC - TEMPERATURE IN CELSIUS
  WCI - WIND CHILL INDEX
   HX - HEAT INDEX
  VSB - VISIBILITY
$$





USA.gov is the U.S. government's official web portal to all federal, state and local government web resources and services.